This is the latest recevied weather packets stored in our database for station/object KD2SIG. If no packets are shown the sender has not sent any weather packets the latest 10 day(s).
| Time | Temp. | Humidity | Pressure | Rain* | Wind** | Luminosity | Snow |
|---|---|---|---|---|---|---|---|
| 1777591053 | 6.67° C | 89% | 1011.4 hPa | 0 mm | - | 18 W/m² | - |
| 1777590749 | 6.67° C | 89% | 1011.3 hPa | 0 mm | - | 26 W/m² | - |
| 1777590445 | 6.67° C | 89% | 1011.3 hPa | 0 mm | - | 31 W/m² | - |
| 1777590142 | 6.67° C | 89% | 1011.1 hPa | 0 mm | - | 39 W/m² | - |
| 1777589838 | 6.67° C | 89% | 1011.4 hPa | 0 mm | - | 40 W/m² | - |
| 1777589533 | 6.67° C | 89% | 1011.3 hPa | 0 mm | - | 32 W/m² | - |
| 1777589232 | 6.67° C | 88% | 1011.1 hPa | 0 mm | - | 29 W/m² | - |
| 1777588929 | 6.67° C | 88% | 1011.3 hPa | 0 mm | - | 34 W/m² | - |
| 1777588625 | 6.67° C | 88% | 1011.2 hPa | 0 mm | - | 42 W/m² | - |
| 1777588320 | 6.67° C | 87% | 1011.1 hPa | 0 mm | - | 56 W/m² | - |
| 1777588016 | 7.22° C | 87% | 1011 hPa | 0 mm | - | 49 W/m² | - |
| 1777587712 | 7.22° C | 87% | 1011.3 hPa | 0 mm | - | 36 W/m² | - |
| 1777587407 | 7.22° C | 86% | 1011 hPa | 0 mm | - | 45 W/m² | - |
| 1777587103 | 6.67° C | 85% | 1011.1 hPa | 0 mm | - | 46 W/m² | - |
| 1777586799 | 7.22° C | 85% | 1011.2 hPa | 0 mm | - | 47 W/m² | - |
| 1777586495 | 7.22° C | 85% | 1011.1 hPa | 0 mm | - | 35 W/m² | - |
| 1777586191 | 7.22° C | 84% | 1011 hPa | 0 mm | - | 35 W/m² | - |
| 1777585888 | 7.22° C | 84% | 1011 hPa | 0 mm | - | 36 W/m² | - |
| 1777585588 | 7.22° C | 83% | 1011 hPa | 0 mm | - | 36 W/m² | - |
| 1777585284 | 7.22° C | 82% | 1010.9 hPa | 0 mm | - | 42 W/m² | - |
| 1777584979 | 7.22° C | 82% | 1010.9 hPa | 0 mm | - | 42 W/m² | - |
| 1777584676 | 7.22° C | 82% | 1010.9 hPa | 0 mm | - | 30 W/m² | - |
| 1777584373 | 7.22° C | 81% | 1010.9 hPa | 0 mm | - | 29 W/m² | - |
| 1777584069 | 7.22° C | 82% | 1010.7 hPa | 0 mm | - | 33 W/m² | - |
| 1777583764 | 7.78° C | 82% | 1010.7 hPa | 0 mm | - | 43 W/m² | - |
* Rain latest hour (hover to see other rain measurements)
** Current wind speed in m/s (hover to see current wind gust speed)